Regional Weather Roundup
Issued by NWS Sterling, VA

Home | Current Version | Previous Version | Text Only | Print | Product List | Glossary Off
Versions: 1 2 3 4 5 6 7 8 9 10 11 12 13 14 15 16 17 18 19 20 21 22 23 24 25 26 27 28 29 30 31 32 33 34 35 36 37 38 39 40 41 42 43 44 45 46 47 48 49 50

298
ASUS41 KLWX 300411
RWRLWX

REGIONAL WEATHER ROUNDUP
NATIONAL WEATHER SERVICE BALTIMORE MD/WASHINGTON DC
1200 AM EDT SAT JUL 30 2016

Note: "FAIR" indicates few or no clouds below 12,000 feet
with no significant weather and/or obstructions to visibility.
 TC=TEMPERATURE CELSIUS

 * =Non NWS site. Station does not report precipitation (e.g. rain,
    snow, etc.), thunder, or fog.

DCZ001-MDZ009-015-VAZ040>042-051-053>054-300500-
WASHINGTON METRO

CITY           SKY/WX    TMP DP  RH WIND       PRES   REMARKS
WASHINGTON NAT FAIR      81  71  71 S7        29.94R
DULLES         FAIR      75  70  84 CALM      29.94S
ANDREWS AFB    CLEAR     77  71  83 S5        29.94R
FT BELVOIR     FAIR      73  72  94 CALM      29.94R
LEESBURG*      FAIR      77  73  88 SW5       29.95S
MANASSAS*      FAIR      73  73 100 CALM      29.94F
GAITHERSBURG*  CLEAR     72  70  94 CALM      29.99R

$$

MDZ006>007-011-014-300500-
BALTIMORE METRO

CITY           SKY/WX    TMP DP  RH WIND       PRES   REMARKS
BWI AIRPORT    PTCLDY    75  72  90 CALM      29.94R
MD SCIENCE CTR   N/A     81  72  74 MISG      29.94R
MARTIN STATE   CLEAR     77  77 100 CALM      29.95R
ANNAPOLIS      CLEAR     80  74  81 CALM      29.93S
FORT MEADE*    CLEAR     72  70  94 CALM      29.96S

$$

MDZ012-015-019>023-300500-
MARYLAND EASTERN SHORE

CITY           SKY/WX    TMP DP  RH WIND       PRES   REMARKS
OCEAN CITY     CLEAR     74  72  93 CALM      29.96R
SALISBURY      NOT AVBL
BAY BRIDGE AP* CLEAR     79  73  83 CALM      29.94S
CAMBRIDGE*     PTCLDY    73  72  94 SE3       29.96R
EASTON*        CLEAR     77  76  99 SE7       29.99R

$$

MDZ017>025-300500-
SOUTHERN MARYLAND

CITY           SKY/WX    TMP DP  RH WIND       PRES   REMARKS
PATUXENT RIVER NOT AVBL
ST INIGOES     CLEAR     75  72  90 CALM      29.94R
LEONARDTOWN*   CLEAR     73  70  88 CALM      29.96S

$$

MDZ003>005-300500-
NORTH CENTRAL MARYLAND

CITY           SKY/WX    TMP DP  RH WIND       PRES   REMARKS
FREDERICK*     CLEAR     72  72 100 SE3       29.97R FOG
HAGERSTOWN APT CLEAR     78  69  73 E5        29.95R

$$

MDZ501>502-300500-
WESTERN MARYLAND

CITY           SKY/WX    TMP DP  RH WIND       PRES   REMARKS
OAKLAND*       CLEAR     68  63  83 CALM      30.08S
CUMBERLAND*    CLEAR     73  72  94 N3        30.00S

$$

VAZ025>031-300500-
SHENANDOAH VALLEY

CITY           SKY/WX    TMP DP  RH WIND       PRES   REMARKS
WINCHESTER*    FAIR      72  70  94 CALM      29.96S
FRONT ROYAL*   FAIR      72  70  94 S3        29.96S
LURAY*         FAIR     N/A N/A N/A CALM      29.98S
NEW MARKET*    FAIR      69  67  95 CALM      29.97S
STAUNTON*      FAIR      70  68  95 CALM      30.02S
WAYNESBORO*    FAIR      72  69  92 SW5       30.01S

$$

WVZ021-048>050-054>055-300500-
EASTERN WEST VIRGINIA PANHANDLE

CITY           SKY/WX    TMP DP  RH WIND       PRES   REMARKS
MARTINSBURG    FAIR      73  69  87 CALM      29.94S
PETERSBURG*    FAIR      70  69  97 CALM      29.99S

$$

VAZ036>039-050-300500-
CENTRAL FOOTHILLS

CITY           SKY/WX    TMP DP  RH WIND       PRES   REMARKS
CHARLOTTESVILL FAIR      74  70  87 CALM      29.96S
CULPEPER*      FAIR      73  73  99 CALM      29.96S
ORANGE*          N/A     73  73 100 CALM      29.97F
GORDONSVILLE*  FAIR      72  72  99 CALM      29.95F
WARRENTON*     FAIR      72  67  84 CALM      29.95S

$$

VAZ055>057-300500-
NORTH AND CENTRAL PIEDMONT

CITY           SKY/WX    TMP DP  RH WIND       PRES   REMARKS
FREDERICKSBRG* FAIR      76  76 100 CALM      29.94S
STAFFORD*      FAIR      72  71  96 CALM      29.99S FOG

$$

NCZ024-NYZ072-PAZ021-071-VAZ022-071-300500-
OTHER REGIONAL OBSERVATIONS

CITY           SKY/WX    TMP DP  RH WIND       PRES   REMARKS
NEW YORK CITY  CLEAR     77  69  76 VRB3      29.95R
PHILADELPHIA   MOCLDY    78  72  81 CALM      29.96R
PITTSBURGH     CLOUDY    74  65  73 E3        29.97S
ROANOKE        MOCLDY    75  69  81 W3        30.02R
RICHMOND       FAIR      75  71  87 SE5       29.95S
RALEIGH        PTCLDY    77  71  82 CALM      29.97S

$$

ANZ530>537-300500-
MARINE OBSERVATIONS

STATION/POSITION TIME  TEMP    WIND        PRES
                       AIR SEA DIR/SP/G
                 (UTC) (F)     (DEG/KT/KT) (MB)
THOMAS PT LIGHT  0400   83 84  190/  7/  8 1015.0R
BALT KEY BRIDGE  0348   81      CALM  /  1 1013.6R
COVE POINT       0348   80     200/  5/  5 1014.5R
LEWISETTA        0348   80 87  220/  4/  5 1013.7R
SOLOMONS ISLAND  0348   80 85  190/  5/  6   N/A
PINEY POINT      0342          220/  6/  6   N/A

$$





USA.gov is the U.S. government's official web portal to all federal, state and local government web resources and services.